This is the latest recevied weather packets stored in our database for station/object SQ7FJB-2. If no packets are shown the sender has not sent any weather packets the latest 10 day(s).
| Time | Temp. | Humidity | Pressure | Rain* | Wind** | Luminosity | Snow |
|---|---|---|---|---|---|---|---|
| 1777444758 | 4.44° C | 45% | 1026.2 hPa | 0 mm | - | - | - |
| 1777444120 | 3.89° C | 47% | 1026.1 hPa | 0 mm | - | - | - |
| 1777443519 | 3.89° C | 51% | 1026.1 hPa | 0 mm | - | - | - |
| 1777442920 | 3.33° C | 52% | 1026 hPa | 0 mm | - | - | - |
| 1777442307 | 3.33° C | 54% | 1026 hPa | 0 mm | - | - | - |
| 1777441644 | 3.33° C | 56% | 1025.8 hPa | 0 mm | - | - | - |
| 1777441044 | 3.33° C | 57% | 1025.8 hPa | 0 mm | - | - | - |
| 1777440445 | 2.78° C | 58% | 1025.6 hPa | 0 mm | - | - | - |
| 1777439844 | 2.78° C | 59% | 1025.5 hPa | 0 mm | - | - | - |
| 1777439232 | 2.22° C | 59% | 1025.5 hPa | 0 mm | - | - | - |
| 1777438632 | 2.22° C | 60% | 1025.5 hPa | 0 mm | - | - | - |
| 1777438020 | 1.67° C | 59% | 1025.5 hPa | 0 mm | - | - | - |
| 1777437420 | 1.11° C | 60% | 1025.3 hPa | 0 mm | - | - | - |
| 1777436807 | 0.56° C | 63% | 1025.3 hPa | 0 mm | - | - | - |
| 1777436195 | 0.56° C | 61% | 1025.1 hPa | 0 mm | - | - | - |
| 1777435582 | 0.56° C | 63% | 1025 hPa | 0 mm | - | - | - |
| 1777434982 | 0.56° C | 65% | 1024.9 hPa | 0 mm | - | - | - |
| 1777434369 | 0.56° C | 65% | 1024.9 hPa | 0 mm | - | - | - |
| 1777433770 | 0.56° C | 63% | 1024.8 hPa | 0 mm | - | - | - |
| 1777433160 | 1.11° C | 62% | 1024.7 hPa | 0 mm | - | - | - |
| 1777432557 | 1.67° C | 59% | 1024.6 hPa | 0 mm | - | - | - |
| 1777431957 | 2.22° C | 57% | 1024.6 hPa | 0 mm | - | - | - |
| 1777431357 | 2.22° C | 57% | 1024.6 hPa | 0 mm | - | - | - |
| 1777430745 | 2.78° C | 55% | 1024.5 hPa | 0 mm | - | - | - |
| 1777430145 | 2.78° C | 56% | 1024.4 hPa | 0 mm | - | - | - |
* Rain latest hour (hover to see other rain measurements)
** Current wind speed in m/s (hover to see current wind gust speed)